SCP
0 0 0 0 0 0 0 0 0 0 0 0 0 0 0 0 0 0 0 0 0 0 0 0 0 0 0 0 0 0 0 0 0 0 0 0 0 0 0 0 0 0 0
0 0 0 0 0 0 0 0 0 0 0 0 0 0 0 0 0 0 0 0 0 0 0 0 0 0 0 0 0 0 0 0 0 0 0 0 0 0 0 0 0 0 0
0 0 0 0 0 0 0 0 0 0 0 0 0 0 0 0 0 0 0 0 0 0 0 0 0 0 0 0 0 0 0 0 0 0 0 0 0 0 0 0 0 0 0
0 0 0 0 0 0 0 0 0 0 0 0 0 0 0 0 0 0 0 0 0 0 0 0 0 0 0 0 0 0 0 0 0 0 0 0 0 0 0 0 0 0 0
0 0 0 0 0 0 0 0 0 0 0 0 0 0 0 0 0 0 0 0 0 0 0 0 0 0 0 0 0 0 0 0 0 0 0 0 0 0 0 0 0 0 0
0 0 0 0 0 0 0 0 0 0 0 0 0 0 0 0 0 0 0 0 0 0 0 0 0 0 0 0 0 0 0 0 0 0 0 0 0 0 0 0 0 0 0
0 0 0 0 0 0 0 0 0 0 0 0 0 0 0 0 0 0 0 0 0 0 0 0 0 0 0 0 0 0 0 0 0 0 0 0 0 0 0 0 0 0 0
0 0 0 0 0 0 0 0 0 0 0 0 0 0 0 0 0 0 0 0 0 0 0 0 0 0 0 0 0 0 0 0 0 0 0 0 0 0 0 0 0 0 0
0 0 0 0 0 0 0 0 0 0 0 0 0 0 0 0 0 0 0 0 0 0 0 0 0 0 0 0 0 0 0 0 0 0 0 0 0 0 0 0 0 0 0
0 0 0 0 0 0 0 0 0 0 0 0 0 0 0 0 0 0 0 0 0 0 0 0 0 0 0 0 0 0 0 0 0 0 0 0 0 0 0 0 0 0 0
0 0 0 0 0 0 0 0 0 0 0 0 0 0 0 0 0 0 0 0 0 0 0 0 0 0 0 0 0 0 0 0 0 0 0 0 0 0 0 0 0 0 0
0 0 0 0 0 0 0 0 0 0 0 0 0 0 0 0 0 0 0 0 0 0 0 0 0 0 0 0 0 0 0 0 0 0 0 0 0 0 0 0 0 0 0
0 0 0 0 0 0 0 0 0 0 0 0 0 0 0 0 0 0 0 0 0 0 0 0 0 0 0 0 0 0 0 0 0 0 0 0 0 0 0 0 0 0 0
0 0 0 0 0 0 0 0 0 0 0 0 0 0 0 0 0 0 0 0 0 0 0 0 0 0 0 0 0 0 0 0 0 0 0 0 0 0 0 0 0 0 0
0 0 0 0 0 0 0 0 0 0 0 0 0 0 0 0 0 0 0 0 0 0 0 0 0 0 0 0 0 0 0 0 0 0 0 0 0 0 0 0 0 0 0
0 0 0 0 0 0 0 0 0 0 0 0 0 0 0 0 0 0 0 0 0 0 0 0 0 0 0 0 0 0 0 0 0 0 0 0 0 0 0 0 0 0 0
0 0 0 0 0 0 0 0 0 0 0 0 0 0 0 0 0 0 0 0 0 0 0 0 0 0 0 0 0 0 0 0 0 0 0 0 0 0 0 0 0 0 0
0 0 0 0 0 0 0 0 0 0 0 0 0 0 0 0 0 0 0 0 0 0 0 0 0 0 0 0 0 0 0 0 0 0 0 0 0 0 0 0 0 0 0
0 0 0 0 0 0 0 0 0 0 0 0 0 0 0 0 0 0 0 0 0 0 0 0 0 0 0 0 0 0 0 0 0 0 0 0 0 0 0 0 0 0 0
0 0 0 0 0 0 0 0 0 0 0 0 0 0 0 0 0 0 0 0 0 0 0 0 0 0 0 0 0 0 0 0 0 0 0 0 0 0 0 0 0 0 0
0 0 0 0 0 0 0 0 0 0 0 0 0 0 0 0 0 0 0 0 0 0 0 0 0 0 0 0 0 0 0 0 0 0 0 0 0 0 0 0 0 0 0
0 0 0 0 0 0 0 0 0 0 0 0 0 0 0 0 0 0 0 0 0 0 0 0 0 0 0 0 0 0 0 0 0 0 0 0 0 0 0 0 0 0 0
0 0 0 0 0 0 0 0 0 0 0 0 0 0 0 0 0 0 0 0 0 0 0 0 0 0 0 0 0 0 0 0 0 0 0 0 0 0 0 0 0 0 0
0 0 0 0 0 0 0 0 0 0 0 0 0 0 0 0 0 0 0 0 0 0 0 0 0 0 0 0 0 0 0 0 0 0 0 0 0 0 0 0 0 0 0
0 0 0 0 0 0 0 0 0 0 0 0 0 0 0 0 0 0 0 0 0 0 0 0 0 0 0 0 0 0 0 0 0 0 0 0 0 0 0 0 0 0 0
0 0 0 0 0 0 0 0 0 0 0 0 0 0 0 0 0 0 0 0 0 0 0 0 0 0 0 0 0 0 0 0 0 0 0 0 0 0 0 0 0 0 0
Wind_Speed
3 3 1 2 5 7 7 8 8 9 10 10 11 10 11 10 11 11 11 11 11 12 13 13 13 13 13 13 14 14 14 14 14 14 14 14 14 15 14 12 10 12 15
4 4 3 3 6 7 8 8 8 9 9 10 10 11 10 10 10 11 11 11 11 12 12 13 13 13 13 13 13 14 14 14 13 12 10 12 13 13 13 12 12 11 14
5 5 5 5 7 8 8 8 8 9 9 9 10 11 11 11 11 11 11 11 11 11 12 12 12 13 13 13 13 13 13 13 12 9 6 9 11 13 13 13 13 13 13
5 5 5 6 8 8 9 9 9 9 9 9 10 10 10 11 11 11 11 11 11 11 11 12 12 12 12 12 12 12 12 12 10 5 6 8 9 11 12 12 12 12 12
5 5 5 7 8 8 9 9 9 9 10 9 9 10 10 10 11 11 11 11 11 11 11 11 12 12 12 12 12 12 12 10 7 6 8 7 8 10 11 11 12 12 11
6 5 6 7 8 8 9 9 9 9 9 9 9 9 10 10 10 10 11 11 11 11 11 11 11 11 11 11 11 11 10 8 5 7 7 7 7 10 11 11 11 11 11
6 5 6 7 7 8 8 9 9 9 9 9 9 9 9 9 9 10 10 10 10 10 11 11 11 11 11 11 10 10 9 6 5 7 6 7 8 10 10 10 10 11 10
6 5 5 6 7 8 8 8 9 9 9 9 9 9 8 9 9 9 9 9 9 10 10 10 10 10 11 10 10 9 8 5 5 6 6 6 9 9 9 9 9 9 10
5 5 5 5 6 7 8 8 8 9 9 9 9 9 9 9 9 9 9 8 9 9 9 9 10 10 10 10 10 10 8 5 5 5 5 6 8 8 8 8 8 9 9
5 5 5 5 5 5 6 8 8 9 10 9 9 9 8 8 8 8 8 8 8 8 8 9 9 9 10 10 9 9 6 3 5 5 4 6 8 8 8 8 8 8 9
4 4 4 4 4 4 5 6 7 8 9 8 8 8 6 5 5 5 7 7 7 7 8 8 9 9 8 8 8 7 4 3 5 4 4 7 7 8 8 8 8 8 7
5 4 3 4 4 4 4 4 4 4 4 4 4 4 3 4 4 5 8 8 7 7 7 8 8 7 4 4 5 4 2 4 3 3 5 8 7 7 7 7 7 7 7
5 4 3 4 4 4 3 3 2 2 3 3 4 4 3 4 3 3 3 3 4 4 4 4 4 3 3 3 2 2 3 2 2 3 5 7 7 6 7 7 7 6 6
5 4 3 4 4 4 3 3 3 3 2 2 3 3 3 2 3 3 2 3 2 2 2 2 2 3 3 3 3 3 3 2 2 2 4 7 7 6 6 6 6 5 5
5 4 3 4 4 4 3 3 3 3 3 3 2 3 3 2 2 3 2 2 2 2 2 2 2 3 3 3 3 3 3 2 2 2 3 6 7 6 6 6 5 5 5
5 5 4 3 4 4 4 3 3 3 3 3 3 3 3 2 2 2 2 2 2 2 2 2 2 2 2 2 3 3 2 2 2 2 2 3 6 7 6 5 5 5 5
6 5 5 4 4 5 4 4 3 3 3 3 3 3 3 3 3 2 2 2 2 2 2 2 2 2 2 2 2 2 2 2 1 2 2 2 2 5 6 6 5 4 5
6 6 5 4 4 4 4 4 3 3 3 3 2 3 3 3 3 2 2 2 2 2 1 1 1 1 1 1 1 1 1 1 1 1 1 2 2 2 4 6 6 5 5
6 6 6 5 5 4 4 3 3 3 3 3 2 2 3 3 3 2 2 2 2 2 1 1 1 1 1 1 1 1 0 0 0 1 1 1 1 2 2 3 5 5 5
6 6 6 5 5 4 3 3 3 3 3 3 3 2 3 2 3 2 2 2 2 2 2 1 1 1 1 1 1 1 0 1 1 1 1 0 1 1 1 1 1 2 4
6 6 6 6 5 4 3 3 3 3 3 3 3 3 4 3 3 2 2 2 2 2 2 2 2 2 1 1 1 1 1 1 1 1 1 1 0 0 1 2 1 1 1
7 7 6 6 6 5 4 3 2 3 3 3 3 3 4 4 3 3 2 2 2 2 2 2 2 2 1 1 1 1 2 3 2 1 1 1 1 1 1 1 2 2 2
6 6 6 6 6 6 5 3 2 2 2 3 4 4 4 4 4 4 4 3 3 3 3 3 3 3 2 2 2 1 2 2 1 2 3 2 2 1 1 1 2 2 2
5 5 6 6 6 5 5 5 5 4 4 4 4 4 4 5 5 4 5 4 4 3 4 4 4 3 3 3 2 2 2 1 2 2 3 3 3 3 2 2 2 3 2
3 4 5 5 5 5 5 6 6 5 5 3 4 5 5 5 5 5 5 5 5 4 4 4 4 5 4 4 3 3 3 3 4 3 3 3 3 3 3 3 3 3 3
2 2 3 5 5 5 6 6 6 6 6 5 5 5 5 4 4 6 6 6 6 5 5 5 5 6 5 5 5 4 4 3 4 4 4 4 3 3 3 3 3 3 2
Wind_Direction
153 146 125 82 106 103 97 92 89 90 93 94 94 91 89 89 88 88 87 86 84 84 85 85 85 83 80 79 79 79 77 75 74 73 72 74 77 80 80 78 82 81 78
150 150 126 103 103 105 102 95 91 90 92 92 93 92 89 88 88 87 87 86 86 86 86 86 84 82 82 80 79 79 77 75 73 72 76 82 75 76 78 70 66 79 81
140 140 135 103 100 100 101 100 94 94 95 93 93 92 89 87 87 86 86 85 85 86 85 85 83 82 83 82 80 79 78 77 73 69 82 89 85 77 77 75 78 82 83
137 137 129 102 103 99 96 100 98 94 95 94 93 93 91 88 85 84 83 83 83 85 84 84 82 82 82 82 81 80 80 76 70 63 82 82 85 80 79 78 79 80 81
135 132 116 104 106 103 99 96 94 92 92 95 95 93 92 89 85 83 83 81 79 78 80 84 84 82 82 82 82 82 80 77 73 76 79 80 83 82 80 79 77 75 77
131 127 118 106 107 104 102 98 94 91 89 91 92 93 93 91 87 83 80 79 77 76 78 81 83 83 83 82 82 81 79 74 87 79 79 78 80 84 82 78 77 75 74
127 123 120 107 111 110 105 100 97 93 90 89 89 91 94 93 90 85 80 78 78 78 79 80 82 82 82 83 82 79 74 58 73 79 77 76 75 81 82 81 79 76 74
124 121 116 107 101 105 105 102 99 96 90 87 86 85 85 89 92 88 84 82 81 80 80 81 82 84 82 79 79 77 70 56 82 80 77 75 74 78 82 81 80 78 76
119 119 116 117 111 98 91 92 95 95 89 85 83 80 77 77 83 87 85 83 83 82 80 81 82 83 83 79 76 73 67 45 78 79 74 71 72 76 80 83 82 80 79
117 118 115 111 113 117 109 89 86 85 80 79 75 72 74 77 80 79 85 82 82 82 81 81 83 83 81 79 77 72 62 62 79 77 70 69 68 72 74 77 81 80 77
125 123 121 114 111 110 108 97 92 85 77 78 77 72 77 92 91 85 70 73 78 80 80 80 81 81 81 79 73 69 68 72 79 71 65 64 69 70 71 75 77 79 79
151 142 133 125 119 117 108 113 108 99 95 92 93 92 87 81 72 72 68 64 69 76 82 79 80 84 83 88 79 74 76 67 70 71 64 62 69 72 73 76 78 77 79
163 153 147 136 128 121 115 111 104 95 93 92 91 92 92 88 85 77 82 79 76 77 85 87 89 79 75 77 84 80 69 71 64 65 62 57 61 70 74 75 76 74 74
167 163 158 148 139 130 120 117 112 108 99 94 90 91 96 95 89 83 78 72 69 67 74 82 84 84 82 81 83 84 78 70 71 65 58 53 53 60 69 71 71 71 72
173 165 165 162 152 144 133 123 118 115 112 105 95 92 88 96 95 89 87 77 68 68 73 75 84 91 90 84 80 81 82 77 71 73 74 55 47 50 58 64 67 67 71
182 174 169 169 165 156 148 138 130 125 119 116 108 99 98 93 95 95 89 84 75 65 64 73 79 89 95 87 85 82 77 77 69 70 72 77 58 49 49 54 60 66 72
189 182 179 174 168 167 159 151 140 135 134 126 120 116 110 103 106 106 104 94 82 75 77 81 85 82 87 92 91 79 73 69 80 75 70 63 70 56 46 43 48 50 57
190 186 181 176 173 174 167 161 150 146 144 135 130 131 126 120 114 112 109 105 95 100 92 89 101 101 97 93 96 88 77 72 84 81 81 70 54 50 53 41 38 40 44
197 190 185 180 178 176 175 169 156 153 154 149 142 140 142 137 133 126 116 111 124 115 107 95 107 124 128 104 98 101 109 125 127 117 103 86 61 39 33 42 32 30 34
200 196 193 186 183 180 177 172 164 161 162 158 157 153 155 152 149 144 141 129 125 133 129 126 123 118 142 134 128 108 121 181 191 181 183 143 77 39 6 357 358 25 27
201 199 198 193 186 181 182 190 184 181 176 173 171 168 169 163 155 154 156 154 157 156 155 150 150 148 139 153 150 139 150 184 201 193 216 232 216 3 349 338 331 323 332
202 202 201 199 196 195 200 200 214 187 190 186 181 183 183 180 173 178 177 180 177 172 170 167 162 177 177 199 198 184 192 195 193 236 239 245 253 254 272 298 303 303 308
208 209 209 206 201 201 199 189 186 185 184 191 190 190 193 193 190 190 194 198 195 189 190 193 191 195 201 210 232 228 210 218 217 209 230 238 245 261 274 289 295 291 291
221 215 217 212 206 202 197 200 201 211 208 206 200 197 197 203 203 200 199 206 209 210 204 206 207 218 214 210 218 251 274 249 217 220 215 226 238 247 260 269 279 281 278
238 225 221 215 210 204 203 207 212 221 220 209 204 205 206 207 211 209 208 206 211 217 215 214 218 224 222 225 222 222 234 240 235 231 239 237 242 243 250 253 256 260 267
247 231 230 218 214 207 208 212 217 224 224 213 211 212 213 212 215 217 215 215 214 217 218 218 220 227 231 232 232 224 223 228 222 228 238 241 250 248 249 250 249 251 258